[[{"header":{"parameterUnit":"m.s-1","parameterCategory":1,"la1":30.2991,"la2":30.254,"lo1":-89.0895,"lo2":-89.0444,"dy":0.0017,"dx":0.0017,"nx":28,"ny":28,"refTime":"2024-12-11T03:00:00:Z","depth":0,"parameterNumber":2,"parameterNumberName":"U-component_of_WINDS"},"data":[0,0,0,0,0,0,0,0,0,0,0,0,0,0,0,0,0,0,0,0,0,0,0,0,0,0,0,0,0,0,0,0,0,0,0,0,0,0,0,0,0,0,0,0,0,0,0,0,0,0,0,0,0,0,0,0,0,0,0.9912,0.9912,0,0.9865,0.9864,0.9864,0.9857,0.9858,0.9858,0.9859,0.9806,0.9804,0.9803,0,0,0,0,0,0,0,0,0,0,0,0,0,0.9994,0.9993,0.9912,0.9912,0.9911,0.9865,0.9864,0.9863,0.9857,0.9858,0.9859,0.9859,0.9807,0.9805,0.9802,0,0,0,0,0,0,0,0,0,0,0,0,0,0.9954,0.9992,0.9912,0.9903,0.9901,0.9865,0.9864,0.9863,0.9857,0.9858,0.9859,0.9859,0.9807,0.9805,0.9802,0.9771,0,0,0.9794,0.9792,0,0,0,0,0,0,0,0,0.9956,0.9951,0.9905,0.9903,0.9902,0.9868,0.9874,0.9832,0.9857,0.9874,0.9859,0.986,0.9826,0.9822,0.9811,0.9769,0.9766,0.9793,0.9792,0.9791,0.979,0,0,0,0,0,0,0,0.9959,0.9953,0.9893,0.9904,0.9902,0.9899,0.9894,0.9866,0.9846,0.9872,0.9872,0.9867,0.9825,0.9814,0.981,0.9765,0.9793,0.9791,0.9789,0.9788,0.9694,0.9693,0,0,0,0,0,0,0.9964,0.9955,0.9895,0.9892,0.9931,0.9897,0.9892,0.9878,0.9847,0.9843,0.9866,0.9866,0.9818,0.9813,0.9808,0.9768,0.9791,0.9788,0.9786,0.9695,0.9693,0.9693,0,0,0,0,0,0,0.9966,0.9959,0.9897,0.9923,0.9915,0.9895,0.988,0.9877,0.9865,0.9842,0.9838,0.9858,0.9818,0.9812,0.978,0.9766,0.9787,0.9784,0.9696,0.9694,0.9693,0.9689,0,0,0,0,0,0,0.9968,0.9959,0.9948,0.9923,0.9914,0.9871,0.9879,0.9875,0.9861,0.9861,0.9833,0.9829,0.9818,0.9784,0.9777,0.9763,0.9782,0.9697,0.9695,0.9693,0.969,0.9688,0.9686,0,0,0,0,0,0.9971,0.9948,0.9948,0.994,0.99,0.987,0.9865,0.9854,0.986,0.9848,0.9833,0.983,0.9769,0.9781,0.9773,0.9758,0.9697,0.9695,0.9694,0.9691,0.9688,0.9686,0,0,0,0,0,0,0.9971,0.9945,0.9944,0.9913,0.9894,0.9869,0.9854,0.9851,0.9829,0.983,0.9816,0.981,0.9778,0.9765,0.9779,0.9725,0.9734,0.973,0.9735,0.9732,0.9729,0.9732,0.978,0,0,0,0,0,0.9967,0.9947,0.9925,0.9899,0.989,0.9874,0.986,0.9854,0.9833,0.9825,0.9807,0.9786,0.9762,0.9747,0.9723,0.9689,0.9682,0.9674,0.9672,0.967,0.9666,0.9646,0.9641,0.9686,0.9686,0.9686,0,0,0.9959,0.9943,0.993,0.9899,0.9884,0.9861,0.9867,0.9843,0.9826,0.9821,0.9789,0.9776,0.9752,0.9718,0.9703,0.9706,0.9653,0.9668,0.9667,0.9664,0.9643,0.9639,0.9635,0.9685,0.9685,0.9685,0,0,0.9933,0.992,0.9896,0.9881,0.9858,0.9847,0.9842,0.9818,0.9809,0.9778,0.9773,0.9752,0.9712,0.9694,0.968,0.9647,0.9643,0.964,0.9627,0.9607,0.9603,0.96,0.9586,0.9582,0.9637,0.9637,0.9637,0,0.9926,0.9893,0.9884,0.986,0.9846,0.9842,0.9817,0.9802,0.9773,0.9762,0.9767,0.9716,0.9699,0.9661,0.9653,0.9642,0.9634,0.9642,0.9605,0.9601,0.9598,0.9585,0.958,0.9637,0.9637,0.9637,0.9637,0,0.9884,0.9861,0.9845,0.9817,0.9801,0.9777,0.9763,0.9748,0.9743,0.9731,0.9699,0.9679,0.9651,0.9642,0.9637,0.9603,0.9605,0.9608,0.9616,0.9594,0.9581,0.9576,0.9636,0.9636,0.9636,0.9636,0,0,0.9854,0.9823,0.9817,0.9803,0.9778,0.976,0.9735,0.9709,0.9695,0.9675,0.9653,0.9619,0.9621,0.9605,0.9598,0.958,0.9553,0.9585,0.9584,0.9577,0.9512,0.9509,0.9503,0.9552,0.9551,0.955,0.9514,0,0.9823,0.978,0.9771,0.9733,0.9711,0.9708,0.9686,0.9667,0.9656,0.9634,0.9622,0.9597,0.9603,0.9593,0.9576,0.956,0.954,0.9563,0.9529,0.9527,0.9532,0.9497,0.9493,0.9459,0.9509,0.9508,0.9507,0,0.9781,0.976,0.972,0.9698,0.9688,0.9669,0.9643,0.9624,0.9602,0.9595,0.9578,0.9572,0.9545,0.9556,0.9517,0.9533,0.9519,0.9509,0.9508,0.9502,0.9514,0.9487,0.9448,0.9442,0.95,0.95,0.9501,0,0.976,0.9723,0.9694,0.9683,0.9656,0.9643,0.9631,0.961,0.9595,0.9573,0.9562,0.9537,0.9523,0.9503,0.949,0.95,0.9451,0.9462,0.9443,0.9443,0.943,0.9431,0.9386,0.9426,0.9426,0.9426,0.9426,0,0.9725,0.97,0.9684,0.9666,0.9637,0.9628,0.96,0.9587,0.9569,0.9547,0.9543,0.9523,0.9509,0.9486,0.9476,0.9444,0.9438,0.943,0.9427,0.9428,0.9429,0.9417,0.9418,0.9424,0.9425,0.9425,0.9425,0,0.9696,0.9685,0.9652,0.963,0.9624,0.9604,0.9584,0.9565,0.9555,0.9527,0.952,0.9503,0.9475,0.9462,0.9428,0.9421,0.9384,0.9384,0.9391,0.9389,0.937,0.9371,0.9313,0.9304,0.9353,0.9352,0.9352,0,0.9673,0.9654,0.963,0.9615,0.9603,0.958,0.9565,0.9555,0.9539,0.9513,0.9497,0.947,0.9447,0.9404,0.9387,0.9361,0.9358,0.934,0.9354,0.9356,0.9355,0.9355,0.9352,0.9336,0.9336,0.9335,0.9335,0,0.9632,0.9628,0.9606,0.9583,0.9565,0.9545,0.9526,0.9514,0.9501,0.9483,0.9456,0.9438,0.9404,0.9376,0.9349,0.9335,0.9331,0.9331,0.9325,0.9325,0.9329,0.9324,0.9381,0.9332,0.9332,0.9332,0.9333,0.9333,0.9603,0.9586,0.9566,0.9542,0.9527,0.9509,0.949,0.9478,0.9455,0.9427,0.9423,0.9393,0.9371,0.9334,0.932,0.9295,0.9299,0.929,0.9287,0.9285,0.9282,0.9335,0.929,0.9291,0.9291,0.9291,0.9291,0,0.956,0.9548,0.9526,0.95,0.948,0.9482,0.9461,0.9444,0.9418,0.9399,0.9377,0.9345,0.9319,0.93,0.9273,0.9257,0.9254,0.9249,0.9249,0.9245,0.9282,0.9289,0.9252,0.9252,0.9252,0.9252,0.9252,0.9252,0.9535,0.9505,0.9498,0.9459,0.9447,0.9418,0.9406,0.9389,0.9373,0.9338,0.9316,0.9305,0.9286,0.9257,0.9232,0.9227,0.9216,0.9211,0.9205,0.9239,0.9243,0.9247,0.9253,0.9209,0.9209,0.917,0.917,0.917]},{"header":{"parameterUnit":"m.s-1","parameterCategory":1,"la1":30.2991,"la2":30.254,"lo1":-89.0895,"lo2":-89.0444,"dy":0.0017,"dx":0.0017,"nx":28,"ny":28,"refTime":"2024-12-11T03:00:00:Z","depth":0,"parameterNumber":3,"parameterNumberName":"V-component_of_WINDS"},"data":[0,0,0,0,0,0,0,0,0,0,0,0,0,0,0,0,0,0,0,0,0,0,0,0,0,0,0,0,0,0,0,0,0,0,0,0,0,0,0,0,0,0,0,0,0,0,0,0,0,0,0,0,0,0,0,0,0,0,-4.137,-4.1372,0,-4.1576,-4.1579,-4.1581,-4.1533,-4.1529,-4.1525,-4.1521,-4.1731,-4.174,-4.1749,0,0,0,0,0,0,0,0,0,0,0,0,0,-4.0934,-4.0943,-4.137,-4.1373,-4.1375,-4.1576,-4.1579,-4.1582,-4.1534,-4.1529,-4.1524,-4.152,-4.1728,-4.1739,-4.175,0,0,0,0,0,0,0,0,0,0,0,0,0,-4.113,-4.0945,-4.137,-4.1375,-4.1378,-4.1575,-4.1579,-4.1582,-4.1535,-4.1529,-4.1523,-4.1517,-4.1724,-4.1738,-4.1751,-4.1955,0,0,-4.1794,-4.18,0,0,0,0,0,0,0,0,-4.1119,-4.1146,-4.1372,-4.1375,-4.1379,-4.1523,-4.1502,-4.1707,-4.1536,-4.1475,-4.1521,-4.1514,-4.1666,-4.1685,-4.1736,-4.1965,-4.1974,-4.1795,-4.1803,-4.1809,-4.1813,0,0,0,0,0,0,0,-4.1106,-4.1137,-4.1451,-4.1375,-4.1379,-4.1368,-4.1389,-4.1541,-4.1601,-4.148,-4.1477,-4.1502,-4.1667,-4.1723,-4.1741,-4.1977,-4.1795,-4.1807,-4.1815,-4.1821,-4.2386,-4.2392,0,0,0,0,0,0,-4.1089,-4.1126,-4.1445,-4.1458,-4.1232,-4.138,-4.1404,-4.1483,-4.1599,-4.1612,-4.1507,-4.1499,-4.1702,-4.1725,-4.1748,-4.1996,-4.1809,-4.1822,-4.183,-4.2379,-4.2387,-4.2394,0,0,0,0,0,0,-4.108,-4.1118,-4.1437,-4.1291,-4.1331,-4.1394,-4.1482,-4.149,-4.1546,-4.162,-4.163,-4.1553,-4.1698,-4.1728,-4.1905,-4.2003,-4.1828,-4.1841,-4.2371,-4.2381,-4.2391,-4.2493,0,0,0,0,0,0,-4.1068,-4.1115,-4.1193,-4.1294,-4.1339,-4.1591,-4.1488,-4.1498,-4.157,-4.1562,-4.1666,-4.1678,-4.1696,-4.1884,-4.1918,-4.2019,-4.1852,-4.2363,-4.2376,-4.2388,-4.2482,-4.2506,-4.2526,0,0,0,0,0,-4.1053,-4.1213,-4.1198,-4.1236,-4.1438,-4.1596,-4.1622,-4.1641,-4.1578,-4.1657,-4.1705,-4.1674,-4.1986,-4.1903,-4.1941,-4.2047,-4.2357,-4.2372,-4.2387,-4.2472,-4.2501,-4.2526,0,0,0,0,0,0,-4.1122,-4.1226,-4.121,-4.1408,-4.1494,-4.1588,-4.1688,-4.1671,-4.1776,-4.1764,-4.1781,-4.1805,-4.1986,-4.2033,-4.1938,-4.2251,-4.2162,-4.2186,-4.2214,-4.2242,-4.2264,-4.225,-4.1863,0,0,0,0,0,-4.1161,-4.1281,-4.1365,-4.1531,-4.1575,-4.1625,-4.1694,-4.1701,-4.179,-4.1826,-4.1887,-4.1975,-4.2092,-4.217,-4.2282,-4.2488,-4.2511,-4.2579,-4.2602,-4.262,-4.264,-4.2755,-4.2787,-4.2444,-4.2444,-4.2443,0,0,-4.1241,-4.1313,-4.1388,-4.1547,-4.1615,-4.1739,-4.1655,-4.179,-4.1883,-4.1846,-4.2018,-4.2065,-4.2164,-4.2357,-4.2444,-4.2402,-4.274,-4.2639,-4.2653,-4.2664,-4.2774,-4.2806,-4.2835,-4.2454,-4.2452,-4.245,0,0,-4.1452,-4.1518,-4.1665,-4.1734,-4.1838,-4.187,-4.1905,-4.2002,-4.2033,-4.2205,-4.2181,-4.2291,-4.2493,-4.2566,-4.2629,-4.2869,-4.2845,-4.2905,-4.3023,-4.3134,-4.3161,-4.3185,-4.3273,-4.3304,-4.2925,-4.2925,-4.2925,0,-4.1539,-4.1726,-4.1742,-4.1881,-4.1952,-4.1926,-4.2076,-4.2142,-4.2277,-4.2327,-4.2277,-4.2532,-4.2596,-4.2807,-4.2866,-4.2917,-4.2959,-4.2894,-4.3156,-4.318,-4.3203,-4.3287,-4.332,-4.2932,-4.2931,-4.293,-4.293,0,-4.1829,-4.1959,-4.2066,-4.2198,-4.2281,-4.2424,-4.2463,-4.2545,-4.2545,-4.2582,-4.2759,-4.2835,-4.2964,-4.3014,-4.3014,-4.3225,-4.3196,-4.3151,-4.3062,-4.3242,-4.3322,-4.3354,-4.2941,-4.2939,-4.2937,-4.2935,0,0,-4.209,-4.2231,-4.227,-4.233,-4.2443,-4.2544,-4.2686,-4.2813,-4.2884,-4.2977,-4.3098,-4.3271,-4.3231,-4.3302,-4.3311,-4.3408,-4.3597,-4.3352,-4.3355,-4.3397,-4.3837,-4.3871,-4.3908,-4.3581,-4.3587,-4.3592,-4.3829,0,-4.2313,-4.2565,-4.2584,-4.2811,-4.2932,-4.291,-4.3034,-4.3116,-4.3155,-4.3264,-4.3306,-4.3429,-4.3366,-4.3409,-4.3505,-4.3554,-4.3686,-4.3536,-4.3695,-4.37,-4.3673,-4.3949,-4.3986,-4.4206,-4.386,-4.3865,-4.3869,0,-4.2607,-4.2711,-4.2951,-4.3048,-4.31,-4.3211,-4.333,-4.3433,-4.3527,-4.3548,-4.363,-4.3625,-4.3772,-4.3677,-4.388,-4.3778,-4.3844,-4.3878,-4.3887,-4.3904,-4.3797,-4.3976,-4.4277,-4.4311,-4.3917,-4.3914,-4.391,0,-4.2776,-4.2976,-4.3146,-4.3198,-4.3315,-4.3395,-4.3447,-4.3535,-4.3611,-4.3714,-4.3764,-4.3882,-4.3948,-4.404,-4.4068,-4.3996,-4.4271,-4.4178,-4.4294,-4.4294,-4.4355,-4.4351,-4.4673,-4.4394,-4.4393,-4.4392,-4.4392,0,-4.3025,-4.3173,-4.3224,-4.3329,-4.3494,-4.3515,-4.3678,-4.3726,-4.3805,-4.3919,-4.3905,-4.4012,-4.4041,-4.4154,-4.4177,-4.4343,-4.4372,-4.4394,-4.4399,-4.4397,-4.4395,-4.4442,-4.4428,-4.4401,-4.4399,-4.4398,-4.4396,0,-4.3243,-4.3283,-4.3467,-4.3563,-4.3591,-4.3709,-4.3792,-4.3893,-4.3929,-4.4074,-4.4109,-4.4167,-4.4299,-4.4336,-4.4493,-4.4509,-4.4705,-4.4694,-4.4674,-4.4675,-4.4791,-4.478,-4.5155,-4.5207,-4.4892,-4.4895,-4.4897,0,-4.3399,-4.3513,-4.3622,-4.3698,-4.3755,-4.3876,-4.3954,-4.3979,-4.406,-4.4177,-4.4264,-4.4395,-4.4501,-4.4713,-4.4769,-4.489,-4.4884,-4.5007,-4.4902,-4.4897,-4.4889,-4.4883,-4.4895,-4.5027,-4.5031,-4.5033,-4.5035,0,-4.3675,-4.3689,-4.3802,-4.3923,-4.4016,-4.4112,-4.4204,-4.4267,-4.4305,-4.4397,-4.4533,-4.4615,-4.4777,-4.4908,-4.5031,-4.5084,-4.5068,-4.5068,-4.5102,-4.5102,-4.5087,-4.51,-4.4731,-4.506,-4.5057,-4.5055,-4.5054,-4.5053,-4.3869,-4.397,-4.4063,-4.419,-4.4262,-4.4348,-4.4449,-4.4499,-4.4613,-4.4748,-4.4755,-4.4903,-4.4995,-4.5158,-4.5219,-4.5335,-4.5299,-4.5347,-4.536,-4.5372,-4.5383,-4.5067,-4.5357,-4.5356,-4.5356,-4.5355,-4.5355,0,-4.4145,-4.4205,-4.4321,-4.4451,-4.4551,-4.4526,-4.4627,-4.4713,-4.4843,-4.493,-4.5036,-4.5193,-4.5319,-4.5386,-4.5512,-4.5592,-4.5588,-4.5625,-4.562,-4.5634,-4.5407,-4.5367,-4.5627,-4.5627,-4.5627,-4.5626,-4.5626,-4.5626,-4.4301,-4.4472,-4.4498,-4.4704,-4.4762,-4.4907,-4.4968,-4.5048,-4.5118,-4.5294,-4.54,-4.5443,-4.5523,-4.5655,-4.577,-4.5787,-4.5835,-4.5877,-4.5889,-4.5677,-4.5649,-4.5623,-4.5585,-4.5887,-4.5887,-4.6106,-4.6108,-4.611]}]]